Norman Wells, Northwest Territories

6:47 AM MDT on May 24, 2017 (GMT -0600)
Norman Wells

Weather History for CYVQ - October, 2012

Change the Weather History Date:

Sunday, October 7, 2012

  Actual Average Record
Temperature  
Mean Temperature 44 °F -  
Max Temperature 49 °F 23 °F 49 °F (2012)
Min Temperature 37 °F 11 °F 17 °F (1996)
Degree Days  
Heating Degree Days 22    
Moisture  
Dew Point 38 °F    
Average Humidity 83    
Maximum Humidity 100    
Minimum Humidity 58    
Precipitation  
Precipitation 0.01 in 0.03 in - ()
Sea Level Pressure  
Sea Level Pressure 30.16 in    
Wind  
Wind Speed 8 mph ()    
Max Wind Speed 18 mph    
Max Gust Speed 25 mph    
Visibility 14.5 miles    
Events Rain    
Averages and records for this station are not official NWS values.
T = Trace of Precipitation, MM = Missing Value Source: Averaged Metar Reports

Daily Weather History Graph

Daily Weather History Graph

Search for Another Location

Airport or City:

Trip Planner

Search our weather history database for the weather conditions in past years. The results will help you decide how hot, cold, wet, or windy it might be!

Date:

Astronomy

Oct. 07, 2012 Rise Set
Actual Time 8:57 AM MDT 7:30 PM MDT
Civil Twilight 8:07 AM MDT 8:20 PM MDT
Nautical Twilight 7:09 AM MDT 9:17 PM MDT
Astronomical Twilight 6:08 AM MDT 10:18 PM MDT
Moon 11:06 PM MDT (10/7) 5:24 PM MDT (10/7)
Length of Visible Light 12h 12m
Length of Day
10h 32m
Waning Gibbous, 55% of the Moon is Illuminated
Oct 7
Waning Gibbous
Oct 8
Last Quarter
Oct 15
New
Oct 21
First Quarter
Oct 29
Full

Hourly Weather History & Observations

Time (MDT) Temp. Windchill Dew Point Humidity Pressure Visibility Wind Dir Wind Speed Gust Speed Precip Events Conditions
12:00 AM 44 °F - 43 °F 93% 30.10 in 15 mi WNW 12.7 mph - -   Partly Cloudy
12:00 AM 44.6 °F 38.1 °F 42.8 °F 93% 30.10 in 15.0 mi WNW 13.8 mph 20.7 mph N/A   Mostly Cloudy
1:00 AM 42.8 °F 38.6 °F 42.8 °F 100% 30.11 in 15.0 mi WNW 6.9 mph - N/A   Mostly Cloudy
2:00 AM 42.8 °F 38.6 °F 42.8 °F 100% 30.12 in 15.0 mi WNW 6.9 mph - N/A   Overcast
3:00 AM 42.8 °F 39.3 °F 41.0 °F 93% 30.12 in 15.0 mi WNW 5.8 mph - N/A   Overcast
4:00 AM 42.8 °F 37.5 °F 41.0 °F 93% 30.13 in 15.0 mi WNW 9.2 mph - N/A   Mostly Cloudy
5:00 AM 41.0 °F 35.8 °F 39.2 °F 93% 30.15 in 15.0 mi West 8.1 mph - N/A   Overcast
6:00 AM 41 °F - 39 °F 92% 30.16 in 15 mi WNW 8.1 mph - -   Overcast
6:00 AM 41.0 °F 36.4 °F 39.2 °F 93% 30.16 in 15.0 mi WNW 6.9 mph - N/A   Overcast
7:00 AM 41.0 °F 35.2 °F 39.2 °F 93% 30.15 in 15.0 mi WNW 9.2 mph - N/A   Overcast
8:00 AM 39.2 °F 34.2 °F 37.4 °F 93% 30.16 in 10.0 mi West 6.9 mph - N/A   Mostly Cloudy
9:00 AM 39.2 °F 35.0 °F 37.4 °F 93% 30.15 in 30.0 mi West 5.8 mph - N/A   Mostly Cloudy
10:00 AM 41.0 °F 35.2 °F 37.4 °F 87% 30.15 in 30.0 mi West 9.2 mph - N/A   Mostly Cloudy
10:45 AM - - - N/A% - 30.0 mi NW 3.5 mph - N/A Rain Light Rain
11:00 AM 41.0 °F 37.1 °F 39.2 °F 93% 30.17 in 30.0 mi WNW 5.8 mph - N/A Rain Light Rain
12:00 PM 44 °F - 39 °F 77% 30.18 in 28 mi WNW 10.4 mph - - Rain Light Rain
12:00 PM 44.6 °F 39.7 °F 39.2 °F 81% 30.18 in 30.0 mi WNW 9.2 mph - N/A Rain Light Rain
12:39 PM - - - N/A% - 30.0 mi WNW 10.4 mph - N/A   Mostly Cloudy
1:00 PM 44.6 °F 38.4 °F 39.2 °F 81% 30.19 in 30.0 mi West 12.7 mph - N/A   Scattered Clouds
2:00 PM 48.2 °F - 39.2 °F 71% 30.19 in 30.0 mi West 18.4 mph - N/A   Scattered Clouds
3:00 PM 48.2 °F - 35.6 °F 62% 30.18 in 30.0 mi WNW 17.3 mph 25.3 mph N/A   Scattered Clouds
4:00 PM 48.2 °F - 33.8 °F 58% 30.19 in 30.0 mi WNW 10.4 mph 20.7 mph N/A   Mostly Cloudy
5:00 PM 48.2 °F - 33.8 °F 58% 30.19 in 30.0 mi WNW 13.8 mph 19.6 mph N/A   Mostly Cloudy
6:00 PM 46 °F - 36 °F 58% 30.19 in 28 mi West 10.4 mph - -   Partly Cloudy
6:00 PM 46.4 °F 41.5 °F 35.6 °F 66% 30.19 in 30.0 mi West 10.4 mph - N/A   Mostly Cloudy
7:00 PM 42.8 °F 41.1 °F 35.6 °F 76% 30.20 in 30.0 mi WNW 3.5 mph - N/A   Overcast
9:00 PM 39.2 °F 35.9 °F 35.6 °F 87% 30.19 in 30.0 mi WNW 4.6 mph - N/A Rain Light Rain
9:23 PM - - - N/A% - 30.0 mi WNW 4.6 mph - N/A   Mostly Cloudy
10:00 PM 39.2 °F 37.0 °F 33.8 °F 81% 30.20 in 30.0 mi WNW 3.5 mph - N/A   Mostly Cloudy
11:00 PM 37.4 °F 34.9 °F 33.8 °F 87% 30.20 in 30.0 mi NW 3.5 mph - N/A   Mostly Cloudy